sat.trackr.live / text

‹ back to catalog

STARLINK-6165

NORAD 57127 · 2023-090AC

PAYLOAD ACTIVE UNKNOWN

§ Identity

Operator
Country
US
Launch date
2023-06-23
Launch site
AFETR
Launch vehicle
Mass (kg)
RCS (m²)

Purposes: comms

External: N2YO · Heavens-Above · Gunter

§ Orbital elements

Epoch: 2026-05-25T04:27:12.144672Z

Period
94.27 min
Inclination
43.0024°
Eccentricity
0.0001596
Mean motion
15.27584860 rev/d
Perigee alt
481.9 km
Apogee alt
484.1 km
Semi-major
6,861.2 km
B*
5.0329e-5
RAAN
209.3469°
Arg perigee
274.6337°
Mean anomaly
85.4332°
Rev number
16,184

§ Raw data

STARLINK-61651 57127U 23090AC  26145.18555723  .00001123  00000+0  50329-4 0  99992 57127  43.0024 209.3469 0001596 274.6337  85.4332 15.27584860161844

JSON: /api/v1/satellites/57127 · /tle

For live sub-satellite position, see the globe view (requires WebGL).

§ Visibility from observer

Set your observer location to see the next 7 days of passes ≥ 10°. The values pass through the URL so the page stays shareable.

No JS? Fill the form by hand. The geolocation button needs JavaScript.